Miscellaneous Local Product
Issued by NWS Hastings, NE

Home | Current Version | Previous Version | Graphics & Text | Print | Product List | Glossary On
Versions: 1 2 3 4 5 6 7 8 9 10 11 12 13 14 15 16 17 18 19 20 21 22 23 24 25 26 27 28 29 30 31 32 33 34 35 36 37 38 39 40 41 42 43 44 45 46 47 48 49 50
723
AXUS43 KGID 251602
MISGRI

GID CWA HOURLY WEATHER ROUNDUP
NATIONAL WEATHER SERVICE HASTINGS NE
1100 AM CDT WED MAY 25 2016

NOTE: "FAIR" INDICATES FEW OR NO CLOUDS BELOW 12,000 FEET WITH NO
SIGNIFICANT WEATHER AND/OR OBSTRUCTIONS TO VISIBILITY.

...SOUTH CENTRAL NEBRASKA...

CITY           SKY/WX    TMP DP  RH WIND       PRES   REMARKS
GRAND ISLAND   SUNNY     72  60  66 S12       29.85F
HASTINGS       SUNNY     68  58  70 SE15      29.86F
KEARNEY        SUNNY     72  57  60 SE13      29.88R
ORD            SUNNY     70  60  70 S14       29.83F
YORK           SUNNY     70  63  78 S12G17    29.85F
AURORA         SUNNY     71  62  71 S15       29.84F
LEXINGTON      SUNNY     70  60  69 SE8       29.89S
HOLDREGE       SUNNY     69  56  63 SE17      29.86F
HEBRON         CLOUDY    67  60  79 E5        29.88S

...NEBRASKA PANHANDLE...

CITY           SKY/WX    TMP DP  RH WIND       PRES   REMARKS
CHADRON        SUNNY     63  50  62 W9        29.89F
ALLIANCE       SUNNY     67  48  50 W17       29.91S
SCOTTSBLUFF    SUNNY     64  44  48 W7        29.94S
SIDNEY         CLOUDY    66  52  60 S14       29.97F

...WESTERN AND NORTH CENTRAL NEBRASKA...

CITY           SKY/WX    TMP DP  RH WIND       PRES   REMARKS
VALENTINE      SUNNY     67  55  65 W16       29.85R
AINSWORTH      SUNNY     69  57  65 SW15      29.85S
ONEILL         SUNNY     72  58  63 SW12      29.82R
BROKEN BOW     SUNNY     69  58  67 S14       29.87R
IMPERIAL       SUNNY     67  54  63 E7        29.93F
NORTH PLATTE   SUNNY     70  57  63 W9        29.91R
MCCOOK         SUNNY     70  56  61 E8        29.89S

...EASTERN NEBRASKA...

CITY           SKY/WX    TMP DP  RH WIND       PRES   REMARKS
NORFOLK        SUNNY     71  60  68 SW9       29.84R
SO SIOUX CITY  MOSUNNY   73  62  68 S10       29.84R
TEKAMAH        CLOUDY    71  61  70 S22       29.83S
COLUMBUS       CLOUDY    72  57  60 S16       29.85R
ALBION         SUNNY     70  60  70 SW10      29.84S
OMAHA EPPLEY   PTSUNNY   69  62  78 S8        29.86F
OFFUTT AFB     PTSUNNY   67  62  82 S3        29.85F
MILLARD        CLOUDY    69  60  74 S3        29.86F
LINCOLN        CLOUDY    68  62  81 S5        29.87F
NEBRASKA CITY  LGT RAIN  66  57  72 S16G28    29.81F
BEATRICE       CLOUDY    65  60  85 SE6       29.88F
FALLS CITY     LGT RAIN  65  62  90 N7        29.93F

...NORTHERN KANSAS...

CITY           SKY/WX    TMP DP  RH WIND       PRES   REMARKS
GOODLAND       CLOUDY    61  55  81 E5        29.93F
HILL CITY      CLOUDY    64  58  80 E10       29.88S
NORTON         PTSUNNY   68  54  60 E10       29.87R
PHILLIPSBURG   CLOUDY    66  57  72 E10       29.88S
SMITH CENTER   CLOUDY    63  59  88 E12       29.88F
HAYS             N/A     55  55 100 NE14      29.85
RUSSELL        CLOUDY    67  64  90 NE9       29.85S
CONCORDIA      CLOUDY    64  60  87 E6        29.89R
SALINA         CLOUDY    73  68  84 S9        29.85S
TOPEKA         CLOUDY    74  61  63 S9        29.90R



USA.gov is the U.S. government's official web portal to all federal, state and local government web resources and services.